TimeEST,TemperatureF,Dew PointF,Humidity,Sea Level PressureIn,VisibilityMPH,Wind Direction,Wind SpeedMPH,Gust SpeedMPH,PrecipitationIn,Events,Conditions,WindDirDegrees,DateUTC
12:51 AM,28.0,15.1,58,30.18,10.0,WNW,8.1,-,N/A,,Mostly Cloudy,290,2013-01-03 05:51:00
1:51 AM,28.0,15.1,58,30.19,10.0,West,10.4,-,N/A,,Mostly Cloudy,280,2013-01-03 06:51:00
2:51 AM,27.0,15.1,61,30.19,10.0,West,8.1,-,N/A,,Mostly Cloudy,270,2013-01-03 07:51:00
3:51 AM,27.0,15.1,61,30.19,10.0,West,6.9,-,N/A,,Overcast,280,2013-01-03 08:51:00
4:51 AM,26.1,15.1,63,30.18,10.0,WNW,5.8,-,N/A,,Overcast,290,2013-01-03 09:51:00
5:51 AM,26.1,15.1,63,30.18,10.0,WNW,5.8,-,N/A,,Overcast,290,2013-01-03 10:51:00
6:51 AM,26.1,16.0,66,30.19,10.0,NW,6.9,-,N/A,,Overcast,310,2013-01-03 11:51:00
7:51 AM,26.1,16.0,66,30.19,10.0,NW,5.8,-,N/A,,Mostly Cloudy,320,2013-01-03 12:51:00
8:51 AM,27.0,17.1,66,30.19,10.0,NW,5.8,-,N/A,,Mostly Cloudy,310,2013-01-03 13:51:00
9:51 AM,28.0,17.1,63,30.21,10.0,WNW,5.8,-,N/A,,Mostly Cloudy,290,2013-01-03 14:51:00
10:51 AM,30.9,15.1,52,30.19,10.0,WNW,9.2,-,N/A,,Mostly Cloudy,290,2013-01-03 15:51:00
11:51 AM,30.9,14.0,50,30.15,10.0,Variable,4.6,-,N/A,,Mostly Cloudy,0,2013-01-03 16:51:00
12:51 PM,33.1,12.9,43,30.12,10.0,West,8.1,-,N/A,,Mostly Cloudy,260,2013-01-03 17:51:00
1:51 PM,34.0,12.9,42,30.10,10.0,West,9.2,-,N/A,,Scattered Clouds,260,2013-01-03 18:51:00
2:51 PM,33.8,12.2,41,30.09,10.0,WSW,8.1,-,N/A,,Scattered Clouds,240,2013-01-03 19:51:00
3:51 PM,33.1,14.0,46,30.09,10.0,WSW,11.5,-,N/A,,Scattered Clouds,250,2013-01-03 20:51:00
4:51 PM,32.0,14.0,48,30.09,10.0,West,10.4,-,N/A,,Scattered Clouds,270,2013-01-03 21:51:00
5:51 PM,30.0,15.1,54,30.10,10.0,WSW,9.2,-,N/A,,Scattered Clouds,240,2013-01-03 22:51:00
6:51 PM,30.9,15.1,52,30.11,10.0,WSW,10.4,-,N/A,,Mostly Cloudy,240,2013-01-03 23:51:00
7:51 PM,30.9,15.1,52,30.11,10.0,SW,11.5,-,N/A,,Mostly Cloudy,230,2013-01-04 00:51:00
8:51 PM,30.9,15.1,52,30.11,10.0,WSW,11.5,-,N/A,,Mostly Cloudy,240,2013-01-04 01:51:00
9:51 PM,30.9,16.0,54,30.09,10.0,WSW,12.7,-,N/A,,Mostly Cloudy,240,2013-01-04 02:51:00
10:51 PM,28.9,17.1,61,30.09,10.0,SW,10.4,-,N/A,,Mostly Cloudy,230,2013-01-04 03:51:00
11:51 PM,30.0,18.0,61,30.08,10.0,WSW,10.4,-,N/A,,Mostly Cloudy,240,2013-01-04 04:51:00